Weather observations for the past three days for
Cambridge Municipal Airport
Imperial (Metric)
Date Time (cdt) Wind (mph) Vis. (mi.) Weather Sky Cond. Temperature (ºF) Relative Humidity Wind Chill (°F) Heat Index (°F) Pressure Precipitation (in)
Air Dwpt 6 hour altimeter (in) sea level (mb) 1 hr 3 hr 6 hr
Max. Min.
06 07:34 NW 8 9.00 Overcast OVC042 35.6 23 60% 30 29.99 0.0
06 07:14 NW 8 10.00 Overcast OVC041 35.6 23 60% 30 29.98 0.0
06 06:44 NW 7 10.00 Overcast OVC041 35.6 23 60% 31 29.97 0.0
06 06:25 W 8 10.00 Overcast OVC041 35.6 23 60% 30 29.97 0.0
06 06:04 NW 6 0.00 Overcast OVC041 35.6 23 60% 31 0 0.0
06 05:46 NW 5 10.00 Overcast OVC041 35.6 23 60% 32 29.96 0.0
06 05:25 NW 6 10.00 Overcast OVC041 35.6 23 60% 31 29.95 0.0
06 05:05 NW 5 10.00 Overcast OVC041 35.6 23 60% 32 29.95 0.0
06 04:44 W 6 10.00 Overcast OVC041 37.4 23 56% 33 29.95 0.0
06 04:24 NW 6 10.00 Overcast OVC042 37.4 21.2 52% 33 29.95 0.0
06 04:02 NW 7 10.00 Overcast OVC042 37.4 21.2 52% 33 29.94 0.0
06 03:41 NW 7 10.00 Overcast OVC042 37.4 23 56% 33 29.94 0.0
06 03:23 NW 6 10.00 Overcast OVC042 37.4 23 56% 33 29.94 0.0
06 03:06 NW 6 10.00 Overcast OVC043 35.6 23 60% 31 29.94 0.0
06 02:44 NW 6 10.00 Overcast OVC043 35.6 23 60% 31 29.93 0.0
06 02:25 NW 3 10.00 Overcast OVC044 35.6 23 60% 29.94 0.0
06 02:02 NW 3 10.00 Overcast OVC045 33.8 23 65% 29.93 0.0
06 01:44 NW 3 10.00 Overcast OVC045 33.8 23 65% 29.94 0.0
06 01:24 Calm 10.00 Mostly Cloudy BKN045 30.2 21.2 69% 29.94 0.0
06 01:07 Calm 10.00 A Few Clouds FEW045 32 21.2 64% 29.94 0.0
06 00:46 Calm 10.00 Fair CLR 30.2 21.2 69% 29.94 0.0
06 00:27 Calm 10.00 Fair CLR 30.2 21.2 69% 29.94 0.0
06 00:06 Calm 10.00 Fair CLR 32 21.2 64% 29.93 0.0
05 23:48 NW 3 10.00 Fair CLR 30.2 21.2 69% 29.93 0.0
05 23:31 N 3 10.00 Fair CLR 32 23 69% 29.93 0.0
05 23:08 N 3 10.00 Fair CLR 35.6 23 60% 29.92 0.0
05 22:46 NW 3 10.00 Fair CLR 35.6 23 60% 29.92 0.0
05 22:27 N 5 10.00 Fair CLR 37.4 23 56% 34 29.92 0.0
05 22:06 N 5 10.00 Partly Cloudy SCT055 37.4 23 56% 34 29.91 0.0
05 21:47 N 7 10.00 Overcast OVC055 39.2 23 52% 35 29.91 0.0
05 21:30 N 8 10.00 Overcast OVC055 41 23 49% 36 29.9 0.0
05 21:06 N 9 10.00 Overcast OVC060 41 21.2 45% 36 29.9 0.0
05 20:42 NW 10 9.00 Overcast OVC060 42.8 21.2 42% 38 29.88 0.0
05 20:25 N 9 9.00 Overcast OVC060 42.8 21.2 42% 38 29.88 0.0
05 20:04 NW 13 G 23 10.00 Overcast OVC055 44.6 21.2 39% 39 0 0.0
05 19:44 NW 13 9.00 Overcast OVC060 44.6 21.2 39% 39 29.86 0.0
05 19:25 NW 8 10.00 Mostly Cloudy BKN055 44.6 23 43% 41 29.86 0.0
05 19:06 NW 12 G 21 10.00 Partly Cloudy SCT060 46.4 21.2 37% 42 29.86 0.0
05 18:48 NW 13 10.00 A Few Clouds FEW055 46.4 23 40% 41 29.85 0.0
05 18:24 NW 16 G 21 10.00 Mostly Cloudy BKN060 48.2 23 37% 43 29.84 0.0
05 18:01 NW 15 10.00 Mostly Cloudy BKN060 48.2 23 37% 43 29.84 0.0
05 17:42 NW 15 G 25 10.00 Mostly Cloudy BKN065 48.2 21.2 34% 43 29.83 0.0
05 17:21 NW 14 10.00 Overcast OVC065 48.2 21.2 34% 43 29.83 0.0
05 17:02 NW 14 G 20 10.00 Overcast OVC065 32 21.2 64% 23 29.83 0.0
05 16:41 W 14 G 21 10.00 Overcast OVC065 50 21.2 32% 45 29.83 0.0
05 16:22 NW 16 G 22 10.00 Overcast OVC070 48.2 21.2 34% 43 29.84 0.0
05 16:01 NW 15 10.00 Overcast OVC070 48.2 21.2 34% 43 29.84 0.0
05 15:43 NW 10 G 20 10.00 Overcast BKN060 OVC075 48.2 21.2 34% 44 29.84 0.0
05 15:26 W 9 G 17 10.00 Overcast OVC065 48.2 21.2 34% 45 29.84 0.0
05 15:07 NW 13 10.00 Overcast OVC065 48.2 21.2 34% 43 29.84 0.0
05 14:46 NW 15 G 22 10.00 Overcast OVC065 48.2 23 37% 43 29.84 0.0
05 14:28 W 13 G 20 10.00 Overcast OVC065 46.4 21.2 37% 41 29.84 0.0
05 13:57 W 15 10.00 Overcast OVC055 48.2 21.2 34% 43 29.85 0.0
05 13:41 NW 12 G 17 10.00 Overcast OVC055 32 21.2 64% 24 29.84 0.0
05 13:02 NW 12 10.00 Overcast OVC060 46.4 21.2 37% 42 29.85 0.0
05 12:41 NW 10 10.00 Overcast OVC055 44.6 21.2 39% 40 29.85 0.0
05 12:22 NW 17 G 26 10.00 Overcast OVC055 44.6 21.2 39% 38 29.85 0.0
05 12:01 NW 12 G 22 10.00 Overcast OVC050 44.6 21.2 39% 39 29.85 0.0
05 11:41 W 10 G 22 10.00 Mostly Cloudy BKN047 BKN055 44.6 23 43% 40 29.84 0.0
05 11:22 W 14 G 20 10.00 Mostly Cloudy BKN045 44.6 21.2 39% 39 29.85 0.0
05 11:05 NW 10 G 18 10.00 Partly Cloudy SCT044 42.8 23 46% 38 29.85 0.0
05 10:22 W 12 G 20 10.00 Overcast FEW055 OVC070 41 23 49% 35 29.84 0.0
05 10:01 W 12 G 22 10.00 Overcast SCT055 OVC070 41 21.2 45% 35 29.84 0.0
05 09:43 NW 12 10.00 Overcast OVC070 41 21.2 45% 35 29.84 0.0
05 09:23 NW 13 10.00 Overcast OVC070 39.2 19.4 45% 32 29.83 0.0
05 09:07 NW 10 10.00 Mostly Cloudy BKN075 41 19.4 42% 35 29.83 0.0
05 08:47 NW 9 10.00 A Few Clouds FEW075 39.2 19.4 45% 34 29.82 0.0
05 08:29 N 13 10.00 Fair CLR 39.2 19.4 45% 32 29.81 0.0
05 08:10 NW 10 10.00 Fair CLR 39.2 19.4 45% 33 29.81 0.0
05 07:52 NW 13 10.00 Fair CLR 37.4 19.4 48% 30 29.81 0.0
05 07:33 Calm 10.00 Fair CLR 37.4 19.4 48% 29.8 0.0
05 07:01 NW 9 10.00 Fair CLR 35.6 19.4 52% 29 29.79 0.0
05 06:41 NW 8 10.00 Fair CLR 33.8 21.2 60% 28 29.78 0.0
05 06:21 NW 8 10.00 Fair CLR 33.8 21.2 60% 28 29.77 0.0
05 06:01 Calm 10.00 Fair CLR 33.8 23 65% 0 0.0
05 05:41 NW 7 10.00 Fair CLR 33.8 23 65% 28 29.77 0.0
05 05:21 NW 8 10.00 Fair CLR 35.6 24.8 65% 30 29.76 0.0
05 05:04 W 6 10.00 Fair CLR 35.6 24.8 65% 31 29.76 0.0
05 04:42 NW 9 10.00 Fair CLR 35.6 24.8 65% 29 29.76 0.0
05 04:24 NW 7 10.00 Fair CLR 35.6 24.8 65% 31 29.75 0.0
05 04:05 NW 9 10.00 Fair CLR 35.6 24.8 65% 29 29.75 0.0
05 03:44 NW 8 10.00 Fair CLR 37.4 24.8 60% 32 29.74 0.0
05 03:25 NW 7 10.00 Fair CLR 37.4 26.6 65% 33 29.73 0.0
05 03:04 NW 9 10.00 Fair CLR 37.4 26.6 65% 31 29.73 0.0
05 02:43 NW 8 10.00 Fair CLR 37.4 26.6 65% 32 29.72 0.0
05 02:14 NW 8 10.00 Fair CLR 39.2 26.6 61% 34 29.72 0.0
05 01:41 NW 9 10.00 Fair CLR 39.2 24.8 56% 34 29.72 0.0
05 01:21 NW 8 10.00 Fair CLR 39.2 24.8 56% 34 29.72 0.0
05 01:01 NW 8 10.00 Fair CLR 41 24.8 53% 36 29.71 0.0
05 00:41 NW 8 10.00 Fair CLR 41 24.8 53% 36 29.71 0.0
05 00:21 NW 7 10.00 Fair CLR 41 24.8 53% 37 29.7 0.0
05 00:01 NW 8 10.00 Fair CLR 42.8 24.8 49% 39 29.7 0.0
04 23:41 NW 8 10.00 Fair CLR 42.8 24.8 49% 39 29.7 0.0
04 23:21 W 7 10.00 Fair CLR 42.8 24.8 49% 39 29.7 0.0
04 23:01 NW 7 10.00 Partly Cloudy SCT070 42.8 24.8 49% 39 29.7 0.0
04 22:41 W 6 10.00 Mostly Cloudy BKN075 44.6 24.8 46% 42 29.7 0.0
04 22:21 NW 8 10.00 Partly Cloudy SCT075 44.6 24.8 46% 41 29.69 0.0
04 22:01 NW 9 10.00 Mostly Cloudy BKN080 44.6 24.8 46% 40 29.69 0.0
04 21:41 NW 9 10.00 A Few Clouds FEW065 44.6 24.8 46% 40 29.69 0.0
04 21:24 NW 6 10.00 Partly Cloudy SCT065 SCT075 44.6 24.8 46% 42 29.68 0.0
04 21:04 NW 5 10.00 Mostly Cloudy BKN070 44.6 24.8 46% 43 29.67 0.0
04 20:45 NW 6 9.00 Partly Cloudy SCT080 44.6 24.8 46% 42 29.67 0.0
04 20:26 NW 7 10.00 A Few Clouds FEW080 46.4 23 40% 43 29.66 0.0
04 20:08 NW 9 10.00 Partly Cloudy SCT080 46.4 23 40% 42 29.66 0.0
04 19:12 NW 17 G 26 10.00 Overcast OVC060 48.2 24.8 40% 42 29.65 0.0
04 18:49 NW 17 G 24 10.00 Mostly Cloudy BKN070 48.2 24.8 40% 42 29.64 0.0
04 18:33 NW 17 G 28 10.00 Partly Cloudy SCT065 50 23 35% 45 29.63 0.0
04 18:06 NW 22 G 30 10.00 Mostly Cloudy and Breezy BKN065 51.8 23 32% 29.62 0.0
04 17:46 NW 17 G 32 10.00 Partly Cloudy SCT065 51.8 23 32% 29.62 0.0
04 17:29 NW 17 G 29 10.00 Fair CLR 51.8 23 32% 29.61 0.0
04 17:08 NW 21 G 31 10.00 Partly Cloudy and Breezy SCT060 53.6 23 30% 29.6 0.0
04 16:48 NW 17 G 26 10.00 Mostly Cloudy BKN065 53.6 24.8 33% 29.59 0.0
04 16:30 W 21 G 29 10.00 Partly Cloudy and Breezy SCT060 53.6 24.8 33% 29.58 0.0
04 16:10 W 13 G 29 10.00 Partly Cloudy SCT060 55.4 26.6 33% 29.57 0.0
04 15:53 NW 21 G 29 10.00 Mostly Cloudy and Breezy BKN060 53.6 26.6 35% 29.58 0.0
04 14:09 NW 22 G 31 10.00 A Few Clouds and Breezy FEW060 57.2 28.4 33% 29.54 0.0
04 13:51 NW 18 G 31 10.00 A Few Clouds FEW055 57.2 28.4 33% 29.54 0.0
04 13:33 NW 15 G 26 10.00 Mostly Cloudy BKN055 57.2 30.2 36% 29.53 0.0
04 13:07 NW 17 G 33 10.00 A Few Clouds FEW049 55.4 30.2 38% 29.52 0.0
04 12:47 NW 16 G 24 10.00 Partly Cloudy SCT049 59 33.8 39% 29.51 0.0
04 12:30 NW 14 G 28 10.00 Partly Cloudy SCT050 57.2 32 39% 29.5 0.0
04 12:10 NW 15 G 26 10.00 Partly Cloudy SCT050 57.2 33.8 41% 29.49 0.0
04 11:55 NW 17 10.00 A Few Clouds FEW050 57.2 32 39% 29.49 0.0
04 11:34 NW 18 G 32 10.00 A Few Clouds FEW050 57.2 32 39% 29.48 0.0
04 11:05 NW 16 G 29 10.00 Partly Cloudy SCT140 59 33.8 39% 29.47 0.0
04 10:44 NW 15 G 21 10.00 Partly Cloudy FEW040 SCT014 59 32 36% 29.46 0.0
04 10:26 NW 21 G 29 10.00 A Few Clouds and Breezy FEW047 57.2 33.8 41% 29.47 0.0
04 10:09 NW 13 G 26 10.00 Fair CLR 57.2 35.6 44% 29.46 0.0
04 09:50 W 16 G 25 10.00 Fair CLR 57.2 35.6 44% 29.46 0.0
04 09:27 NW 21 G 28 10.00 Fair and Breezy CLR 55.4 33.8 44% 29.45 0.0
04 09:09 W 16 G 23 10.00 Fair CLR 57.2 33.8 41% 29.45 0.0
04 08:51 NW 18 G 24 10.00 Fair CLR 55.4 33.8 44% 29.45 0.0
04 07:41 NW 14 G 23 10.00 Fair CLR 57.2 37.4 48% 0 0.0
04 07:25 NW 12 9.00 Fair CLR 57.2 37.4 48% 0 0.0
04 07:09 NW 8 G 16 9.00 Fair CLR 57.2 39.2 51% 0 0.0
04 06:33 W 13 G 20 10.00 Mostly Cloudy BKN160 59 33.8 39% 0 0.0
04 06:01 W 9 G 17 10.00 Fair CLR 59 30.2 34% 29.35 0.0
04 05:41 SW 12 G 20 10.00 Fair CLR 60.8 30.2 31% 29.35 0.0
04 05:26 SW 10 G 24 10.00 A Few Clouds FEW120 60.8 28.4 29% 29.36 0.0
04 05:08 SW 10 G 18 10.00 Mostly Cloudy BKN110 59 28.4 31% 29.36 0.0
04 04:49 SW 14 G 21 10.00 Overcast OVC110 59 28.4 31% 29.35 0.0
04 04:21 SW 12 10.00 Mostly Cloudy BKN110 59 26.6 29% 29.37 0.0
04 04:01 SW 12 10.00 Partly Cloudy SCT110 59 28.4 31% 29.38 0.0
04 03:43 SW 9 10.00 Fair CLR 57.2 28.4 33% 29.39 0.0
04 03:23 SW 10 10.00 A Few Clouds FEW200 57.2 30.2 36% 29.4 0.0
04 03:04 S 9 10.00 Partly Cloudy SCT210 57.2 30.2 36% 29.41 0.0
04 02:43 S 8 10.00 Fair CLR 57.2 30.2 36% 29.43 0.0
04 02:23 S 10 10.00 Fair CLR 57.2 30.2 36% 29.45 0.0
04 02:06 SW 8 10.00 Fair CLR 57.2 30.2 36% 29.47 0.0
04 01:46 SW 8 10.00 Fair CLR 57.2 30.2 36% 29.48 0.0
04 01:31 S 9 10.00 A Few Clouds FEW190 59 30.2 34% 29.48 0.0
04 01:02 S 10 10.00 Mostly Cloudy SCT160 BKN190 57.2 30.2 36% 29.49 0.0
04 00:41 SW 9 10.00 Partly Cloudy FEW160 SCT200 57.2 30.2 36% 29.51 0.0
04 00:26 S 10 10.00 Fair CLR 57.2 30.2 36% 29.51 0.0
04 00:06 S 9 10.00 Fair CLR 57.2 30.2 36% 29.52 0.0
03 23:48 S 7 10.00 Fair CLR 57.2 30.2 36% 29.53 0.0
03 23:30 S 8 10.00 Fair CLR 55.4 30.2 38% 29.55 0.0
03 23:08 S 7 10.00 Fair CLR 55.4 30.2 38% 29.56 0.0
03 22:51 S 7 10.00 Fair CLR 55.4 30.2 38% 29.58 0.0
03 22:01 S 5 10.00 Fair CLR 51.8 32 47% 29.61 0.0
03 21:41 S 3 10.00 Fair CLR 55.4 30.2 38% 29.62 0.0
03 21:22 SW 5 10.00 Fair CLR 53.6 32 44% 29.62 0.0
03 20:49 Calm 10.00 Fair CLR 60.8 26.6 27% 29.63 0.0
03 20:22 Calm 10.00 Fair CLR 64.4 26.6 24% 29.63 0.0
03 20:03 W 5 9.00 Fair CLR 64.4 26.6 24% 29.63 0.0
03 19:43 W 6 9.00 Fair CLR 66.2 26.6 22% 29.63 0.0
03 19:24 W 10 10.00 Fair CLR 68 26.6 21% 29.64 0.0
03 19:04 W 12 10.00 Fair CLR 68 26.6 21% 29.64 0.0
03 18:41 NW 7 9.00 Fair CLR 68 28.4 23% 29.65 0.0
03 18:13 W 10 10.00 Fair CLR 68 26.6 21% 29.65 0.0
03 17:45 NW 10 10.00 Fair CLR 69.8 26.6 20% 29.65 0.0
03 17:29 W 7 10.00 Fair CLR 69.8 26.6 20% 29.65 0.0
03 17:06 NW 15 G 20 10.00 Fair CLR 69.8 24.8 18% 29.67 0.0
03 16:50 NW 13 G 18 9.00 Fair CLR 69.8 26.6 20% 29.67 0.0
03 16:32 NW 10 9.00 Fair CLR 69.8 26.6 20% 29.67 0.0
03 16:03 NW 13 G 17 10.00 Fair CLR 68 26.6 21% 29.68 0.0
03 15:41 NW 8 G 23 10.00 Fair CLR 68 24.8 20% 29.69 0.0
03 15:23 NW 12 9.00 Fair CLR 68 24.8 20% 29.69 0.0
03 15:03 Vrbl 7 10.00 Fair CLR 68 23 18% 29.7 0.0
03 14:46 NW 10 9.00 Fair CLR 68 23 18% 29.7 0.0
03 14:30 Vrbl 6 10.00 Fair CLR 66.2 23 19% 29.71 0.0
03 14:02 NW 15 G 21 10.00 Fair CLR 66.2 19.4 17% 29.72 0.0
03 13:41 N 18 G 25 10.00 Fair CLR 66.2 21.2 18% 29.72 0.0
03 13:04 NW 16 G 23 10.00 Fair CLR 66.2 26.6 22% 29.72 0.0
03 12:45 N 18 G 22 10.00 Fair CLR 66.2 28.4 24% 29.73 0.0
03 12:25 N 18 G 23 10.00 Fair CLR 66.2 24.8 21% 29.73 0.0
03 12:07 N 17 G 23 10.00 Fair CLR 66.2 26.6 22% 29.73 0.0
03 11:48 NW 18 G 26 10.00 Fair CLR 64.4 32 30% 29.74 0.0
03 11:02 NW 16 G 26 9.00 Fair CLR 64.4 35.6 34% 29.73 0.0
03 10:23 N 23 G 28 10.00 Fair and Breezy CLR 64.4 37.4 37% 29.72 0.0
03 10:04 N 15 G 23 10.00 Fair CLR 62.6 39.2 42% 29.72 0.0
03 09:46 N 9 G 18 10.00 Fair CLR 62.6 37.4 39% 29.72 0.0
03 09:28 Calm 10.00 Fair CLR 60.8 39.2 45% 0 0.0
03 09:10 N 12 10.00 Fair CLR 59 39.2 48% 29.72 0.0
03 08:53 N 12 G 18 10.00 Fair CLR 57.2 37.4 48% 29.72 0.0
03 08:32 N 10 10.00 Fair CLR 55.4 37.4 51% 29.71 0.0
03 08:04 N 13 10.00 Fair CLR 53.6 37.4 54% 29.71 0.0
Date Time (cdt) Wind (mph) Vis. (mi.) Weather Sky Cond. Air Dwpt Max. Min. Relative Humidity Wind Chill (°F) Heat Index (°F) altimeter (in) sea level (mb) 1 hr 3 hr 6 hr
6 hour
Temperature (ºF) Pressure Precipitation (in)